Location: Cedar Brake
(32.2526°N, 97.8459°W)
Time: 17:24:09
(UTC+00:00)

CZ-4 R/B - Pass Details

Date: 22 April 2026
Orbit: 490 x 537 km, 97.5° (Epoch: 9 May)

Event Time Altitude Azimuth Distance (km) Brightness Sun altitude
Exits shadow 01:54:31 15° 112° (ESE) 1,425 2.7 -10.7°
Maximum altitude 01:56:25 22° 72° (ENE) 1,148 2.5 -11.1°
Drops below altitude 10° 01:59:20 10° 20° (NNE) 1,724 3.9 -11.6°
Sets 02:01:43 0° 5° (N) 2,604 5.0 -12.1°
